Weather observations for the past three days for
Miller Air Park
Metric (Imperial)
Date Time (edt) Wind (kph) Vis. (km) Weather Sky Cond. Temperature (ºC) Relative Humidity Wind Chill (°C) Heat Index (°C) Pressure Precipitation (cm)
Air Dwpt 6 hour altimeter (cm) sea level (mb) 1 hr 3 hr 6 hr
Max. Min.
21 11:56 S 13 16.09 A Few Clouds FEW050 33.9 19.4 42% 36 76.68 1022.6
21 10:56 W 15 16.09 Fair CLR 32.8 19.4 45% 35 76.71 1022.9
21 09:56 W 15 16.09 Fair CLR 30.6 20.6 55% 33 76.73 1023.1
21 08:56 W 17 16.09 Fair CLR 28.3 20.6 63% 30 76.76 1023.5
21 07:56 W 17 16.09 Fair CLR 25.6 20.6 26.1 20.6 74% 27 76.78 1024.0
21 06:56 W 11 16.09 Fair CLR 23.3 20 82% 76.81 1024.2
21 05:56 W 9 16.09 A Few Clouds FEW003 20.6 18.9 90% 76.78 1024.0
21 04:56 W 13 16.09 Fair CLR 21.1 18.9 87% 76.78 1023.9
21 03:56 W 11 16.09 Fair CLR 21.1 18.9 87% 76.78 1023.9
21 02:56 SW 9 16.09 Fair CLR 21.1 18.3 84% 76.78 1024.0
21 01:56 SW 9 16.09 Fair CLR 21.1 18.3 27.2 21.1 84% 76.84 1024.5
21 00:56 SW 13 16.09 Fair CLR 21.7 17.8 79% 76.84 1024.4
20 23:56 S 9 16.09 Fair CLR 21.7 17.8 79% 76.84 1024.7
20 22:56 SW 9 16.09 Fair CLR 23.3 18.3 74% 76.86 1025.0
20 21:56 SW 15 16.09 Fair CLR 23.9 18.9 74% 25 76.86 1024.9
20 20:56 SW 11 16.09 Fair CLR 25 18.9 69% 26 76.81 1024.3
20 19:56 S 11 16.09 Fair CLR 27.2 18.9 35.6 27.2 61% 28 76.81 1024.1
20 18:56 SW 15 16.09 Fair CLR 30 18.9 51% 31 76.78 1023.9
20 17:56 S 17 16.09 A Few Clouds FEW002 31.7 20 50% 34 76.78 1024.0
20 16:56 S 19 16.09 Fair CLR 32.8 20.6 49% 36 76.81 1024.3
20 15:56 S 17 G 44 16.09 Partly Cloudy SCT060 33.9 19.4 42% 36 76.86 1025.0
20 14:56 SW 9 16.09 Fair CLR 35 18.3 37% 36 76.91 1025.7
20 13:56 Vrbl 11 16.09 Fair CLR 33.9 18.9 33.9 24.4 41% 36 76.96 1026.2
20 12:56 Calm 16.09 Fair CLR 32.8 18.9 44% 34 77.01 1026.9
20 11:56 Vrbl 6 16.09 Fair CLR 31.7 19.4 48% 33 77.06 1027.6
20 10:56 Vrbl 11 16.09 Fair CLR 31.1 19.4 50% 33 77.09 1027.8
20 09:56 SW 13 16.09 Fair CLR 29.4 20 57% 31 77.11 1028.4
20 08:56 SW 17 16.09 Fair CLR 27.2 20.6 67% 29 77.11 1028.3
20 07:56 SW 11 16.09 Fair CLR 24.4 19.4 24.4 16.1 74% 25 77.11 1028.2
20 06:56 SW 7 16.09 Fair CLR 20.6 18.9 90% 77.09 1028.0
20 05:56 Calm 16.09 A Few Clouds FEW003 16.7 15.6 93% 77.06 1027.6
20 04:56 Calm 16.09 Fair CLR 16.7 16.1 96% 77.06 1027.6
20 03:56 Calm 16.09 Fair CLR 17.8 16.1 90% 77.06 1027.5
20 02:56 Calm 16.09 Fair CLR 17.2 16.1 93% 77.04 1027.4
20 01:56 Calm 16.09 Fair CLR 18.3 17.2 25 18.3 93% 77.04 1027.5
20 00:56 S 6 16.09 Fair CLR 18.9 17.8 93% 77.06 1027.8
19 23:56 Calm 16.09 Fair CLR 20.6 18.3 87% 77.11 1028.2
19 22:56 SW 7 16.09 Fair CLR 21.1 18.3 84% 77.14 1028.5
19 21:56 S 11 16.09 Fair CLR 22.2 17.8 76% 77.09 1028.1
19 20:56 S 13 16.09 Fair CLR 23.3 17.8 71% 77.06 1027.6
19 19:56 S 15 16.09 Fair CLR 25 16.7 33.9 25 60% 26 77.06 1027.5
19 18:56 S 19 G 26 16.09 Fair CLR 28.3 15.6 46% 28 77.04 1027.4
19 17:56 S 20 16.09 Fair CLR 30 16.1 43% 30 77.01 1027.0
19 16:56 S 20 16.09 Fair CLR 31.7 16.7 41% 32 77.04 1027.2
19 15:56 SE 22 16.09 Fair CLR 31.7 17.8 43% 32 77.04 1027.3
19 14:56 SE 24 16.09 Fair CLR 32.2 18.9 45% 34 77.04 1027.3
19 13:56 SW 17 16.09 Fair CLR 33.9 19.4 33.9 24.4 42% 36 77.06 1027.5
19 12:56 S 13 16.09 Fair CLR 32.8 18.9 44% 34 77.09 1027.9
19 11:56 SE 11 16.09 Fair CLR 31.1 18.3 46% 32 77.11 1028.3
19 10:56 Calm 16.09 Fair CLR 29.4 18.3 51% 30 77.14 1028.7
19 09:56 Vrbl 7 16.09 Fair CLR 28.3 18.9 57% 30 77.17 1029.0
19 08:56 SW 15 16.09 Fair CLR 26.7 18.9 62% 28 77.17 1029.1
19 07:56 Vrbl 7 16.09 Fair CLR 24.4 20 24.4 18.3 77% 25 77.17 1029.0
19 06:56 S 6 16.09 Fair CLR 21.1 19.4 90% 77.14 1028.7
19 05:56 S 6 16.09 Partly Cloudy SCT050 18.3 17.2 93% 77.11 1028.2
19 04:56 Calm 16.09 Partly Cloudy SCT050 18.9 18.3 96% 77.06 1027.6
19 03:56 S 6 16.09 Mostly Cloudy BKN050 20 17.8 87% 77.01 1027.0
19 02:56 SW 7 16.09 Mostly Cloudy BKN050 20.6 17.2 81% 77.01 1026.8
19 01:56 SW 9 16.09 Overcast OVC050 21.1 17.2 25 20 79% 76.99 1026.5
19 00:56 S 7 16.09 A Few Clouds FEW055 20 17.8 87% 76.99 1026.7
18 23:56 S 6 16.09 Fair CLR 20.6 17.8 84% 77.01 1027.0
18 22:56 SW 7 16.09 Fair CLR 21.7 17.2 76% 76.99 1026.6
18 21:56 S 11 16.09 Fair CLR 22.2 16.7 71% 76.96 1026.2
18 20:56 S 11 16.09 Fair CLR 23.3 15.6 62% 76.89 1025.2
18 19:56 S 17 16.09 Fair CLR 25 14.4 32.8 25 52% 26 76.86 1024.8
18 18:56 S 15 16.09 Fair CLR 27.2 15.6 49% 28 76.84 1024.4
18 17:56 S 17 16.09 Fair CLR 29.4 17.2 48% 30 76.81 1024.2
18 16:56 S 20 G 33 16.09 Fair CLR 30 18.3 49% 31 76.81 1024.2
18 15:56 S 22 G 31 16.09 Fair CLR 31.7 20 50% 34 76.81 1024.4
18 14:56 S 28 G 33 16.09 Fair CLR 31.7 21.1 53% 35 76.81 1024.3
18 13:56 S 19 G 28 16.09 Mostly Cloudy SCT042 BKN050 32.8 21.7 32.8 23.9 52% 36 76.86 1024.8
18 12:56 Vrbl 11 G 26 14.48 Mostly Cloudy BKN040 32.2 21.1 52% 35 76.86 1025.1
Date Time (edt) Wind (kph) Vis. (km) Weather Sky Cond. Air Dwpt Max. Min. Relative Humidity Wind Chill (°C) Heat Index (°C) altimeter (cm) sea level (mb) 1 hr 3 hr 6 hr
6 hour
Temperature (ºC) Pressure Precipitation (cm)